Regional Weather Roundup
Issued by NWS

Home | Current Version | Previous Version | Text Only | Print | Product List | Glossary Off
Versions: 1 2 3 4 5 6 7 8 9 10 11 12 13 14 15 16 17 18 19 20 21 22 23 24 25 26 27 28 29 30 31 32 33 34 35 36 37 38 39 40 41 42 43 44 45 46 47 48 49 50

000
ASUS45 KABQ 272310
RWRNM
NEW MEXICO REGIONAL WEATHER ROUNDUP
NATIONAL WEATHER SERVICE ALBUQUERQUE NM
500 PM MDT WED MAY 27 2015

NOTE: "FAIR" MEANS FEW OR NO CLOUDS BELOW 12,000 FEET AGL WITH NO
       SIGNIFICANT WEATHER OR OBSTRUCTIONS TO VISION.

      THIS PRODUCT IS RELEASED AS TWO VERSIONS.  ONE VERSION NEAR
      THE TOP OF THE HOUR CONTAINING PRELIMINARY DATA FROM ALBUQUERQUE
      AND OTHER STATIONS.  A FINAL VERSION WITH ADDITIONAL DATA IS
      ISSUED ABOUT 10 MINUTES AFTER THE HOUR.

NMZ501-503-504-510>518-280000-
NORTHWEST PLATEAU/NORTHCENTRAL MOUNTAINS

CITY           SKY/WX    TMP DP  RH WIND       PRES   REMARKS
FARMINGTON     SUNNY     78  28  16 SW7       30.03F
LOS ALAMOS     CLOUDY    69  26  20 SW12      30.19F
SANTA FE       CLOUDY    73  26  17 SW14      30.12F
TAOS           PTSUNNY   72  30  21 SW21G28   30.15S
ANGEL FIRE     FAIR      66  26  22 SW20      30.23R

$$
NMZ402-403-502-505>509-280000-
WESTCENTRAL MOUNTAINS/SOUTHWEST MOUNTAINS

CITY           SKY/WX    TMP DP  RH WIND       PRES   REMARKS
GALLUP         CLOUDY    71  25  17 W14       30.13F
GRANTS         CLOUDY    76  19  11 S14G21    30.12F
SILVER CITY      N/A     82   9   6 SW7       30.08F

$$
NMZ407-409-411-412-280000-
SOUTHERN DESERTS

CITY           SKY/WX    TMP DP  RH WIND       PRES   REMARKS
LORDSBURG      FAIR      88   3   4 SW9G22    29.98F
DEMING         MOSUNNY   88  13   6 SW7       29.98F
LAS CRUCES     PTSUNNY   86  19   8 S9        30.01F
HOLLOMAN AFB   PTSUNNY   90  18   7 SW8G17    29.96F
ALAMOGORDO     PTSUNNY   90  23   9 SW10G33   29.98F
T OR C         MOSUNNY   86  18   8 SW9G24    30.00F

$$
NMZ519>523-280000-
CENTRAL VALLEYS/CENTRAL HIGHLANDS

CITY           SKY/WX    TMP DP  RH WIND       PRES   REMARKS
ALBUQUERQUE    CLOUDY    77  30  17 S5        30.07F
DOUBLE EAGLE   MOSUNNY   73  36  25 S8        30.11F
MORIARTY ARPT  FAIR      76  22  13 S17       30.13F
CLINES CORNERS PTSUNNY   73  22  14 SW23      30.17F
BELEN          FAIR      78  27  15 E7        30.03F
SOCORRO        FAIR      83  20   9 S9G23     30.01F

$$
NMZ524>526-539-540-280000-
SOUTHCENTRAL MOUNTAINS

CITY           SKY/WX    TMP DP  RH WIND       PRES   REMARKS
RUIDOSO        CLOUDY    73  23  15 SW10      30.19F

$$
NMZ527>531-280000-
NORTHEAST HIGHLANDS/NORTHEAST PLAINS

CITY           SKY/WX    TMP DP  RH WIND       PRES   REMARKS
LAS VEGAS      PTSUNNY   70  32  24 SW23G33   30.14F
RATON          MOSUNNY   72  40  31 S20G31    30.09F
CLAYTON        PTSUNNY   80  44  27 SW14G22   30.03F

$$
NMZ532>537-280000-
EASTCENTRAL PLAINS

CITY           SKY/WX    TMP DP  RH WIND       PRES   REMARKS
TUCUMCARI      MOSUNNY   85  38  18 S16G24    29.97F
CANNON AFB     CLOUDY    81  47  30 S17       30.02F
CLOVIS AIRPORT CLOUDY    79  48  34 S16         N/A

$$
NMZ028-029-538-280000-
SOUTHEAST PLAINS

CITY           SKY/WX    TMP DP  RH WIND       PRES   REMARKS
ROSWELL        PTSUNNY   92  38  15 S18       29.96F
ARTESIA        CLOUDY    90  43  19 SE13G20   29.96F
CARLSBAD       CLOUDY    92  44  19 SE14      29.92F
HOBBS          MOSUNNY   86  52  30 SE12      29.99F


$$


USA.gov is the U.S. government's official web portal to all federal, state and local government web resources and services.